Location: Newark
(41.8328°N, 0.5722°E)
Time: 12:45:29
(UTC+00:00)

Hubble Space Telescope - Visible Passes

Search period start: 27 January 2020 00:00
Search period end: 06 February 2020 00:00
Orbit: 536 x 540 km, 28.5° (Epoch: 26 January)

Date Brightness Start Highest point End Pass type
(mag) Time Alt. Az. Time Alt. Az. Time Alt. Az.
03 Feb 3.4 04:54:51 11° S 04:54:58 11° S 04:56:06 10° SSE visible
03 Feb 3.3 06:33:39 10° SSW 06:35:19 12° S 06:36:59 10° SSE visible
04 Feb 3.4 04:44:52 11° SSE 04:44:52 11° SSE 04:45:43 10° SSE visible
04 Feb 3.3 06:23:07 10° SSW 06:24:33 12° S 06:25:59 10° SSE visible
05 Feb 3.6 04:34:53 11° SSE 04:34:53 11° SSE 04:35:09 10° SSE visible
05 Feb 3.3 06:12:48 10° SSW 06:13:47 11° S 06:14:47 10° S visible
